RH
15 13 13 13 12 12 13 14 13 10 8 7 7 7 7 6 6 8 10 13 15 13 12 14 13 12 13 13 13 14 14 14 13 13 13 13 14 14 15 15 15 15 15 13 11 12 11 11 11 11 11 11 11 11 10 10 10 9 10 10 11 11 11 11 10 9 9 9 9 9 10 10 11 12 12 12 12 11 10 10 11 13 15 17 21 25
14 13 13 13 13 13 13 12 10 8 8 8 8 7 7 7 6 8 10 12 14 13 12 15 14 12 13 13 13 14 14 13 13 13 13 13 14 15 15 16 16 16 15 13 13 13 12 12 11 12 12 12 12 11 11 11 11 11 11 12 13 13 14 13 11 10 10 10 10 10 11 12 12 13 13 13 13 12 12 12 11 11 13 15 19 24
12 12 12 13 14 13 12 10 7 7 8 8 7 7 7 7 6 7 10 12 12 11 11 15 13 10 12 13 14 14 13 13 13 13 13 13 14 15 16 17 17 17 16 15 15 14 13 13 13 13 13 13 13 12 12 13 13 13 13 13 14 15 15 15 13 12 12 11 11 11 12 13 13 14 14 14 14 13 13 13 13 11 12 13 16 22
10 11 13 14 14 11 9 9 8 8 8 7 6 7 7 7 7 7 9 11 11 12 12 14 13 10 12 14 14 14 14 14 14 15 15 14 15 16 16 18 18 18 18 17 17 16 15 14 14 14 14 14 14 14 14 14 15 15 15 15 16 16 17 17 15 15 14 13 12 13 13 14 15 16 16 17 17 15 14 14 14 13 13 12 13 19
11 14 15 14 12 9 8 9 9 8 8 8 7 6 6 7 8 7 8 9 10 14 14 13 12 10 12 15 14 14 15 15 16 16 16 16 17 17 18 19 19 19 19 19 18 18 17 16 16 15 15 15 15 16 16 16 16 16 17 17 17 18 18 18 17 17 16 15 14 15 16 18 19 19 19 19 18 16 15 15 14 14 14 13 13 15
11 14 13 11 9 8 8 8 9 9 7 8 8 8 8 8 8 8 9 10 10 13 15 13 10 10 13 16 14 14 16 16 17 17 17 17 18 19 19 19 20 20 20 20 19 19 18 18 17 16 17 18 18 18 18 18 18 18 18 18 19 20 20 19 19 18 18 17 16 16 18 19 20 21 21 20 18 16 17 16 15 15 14 14 13 13
11 12 11 9 8 9 9 8 9 10 7 7 9 10 10 10 10 10 11 12 11 12 14 13 12 12 13 13 13 15 17 16 17 18 18 18 18 19 20 20 21 22 22 22 21 20 19 19 19 19 19 20 20 20 20 20 21 21 21 21 21 22 22 21 21 20 20 19 18 18 20 21 22 22 21 20 19 18 18 18 16 16 15 14 14 13
12 10 9 9 8 8 8 8 10 10 7 8 10 11 10 11 11 11 12 13 12 13 14 15 14 15 14 13 15 18 17 17 18 18 19 19 20 20 21 21 22 23 23 23 23 22 21 21 20 20 21 22 22 22 22 23 23 23 23 23 23 24 24 23 23 23 22 20 20 21 23 24 24 24 23 22 21 20 20 19 18 17 16 15 15 14
12 9 8 8 8 8 8 10 11 10 8 9 12 11 12 12 11 13 13 14 14 14 16 16 15 15 14 14 19 20 18 18 18 19 19 20 21 22 22 24 24 25 25 25 25 24 24 23 23 23 23 23 24 24 25 25 25 25 25 25 25 26 26 25 26 25 24 22 22 24 26 26 26 26 26 25 24 24 23 22 21 19 18 17 16 16
11 9 9 7 7 8 10 12 12 10 9 10 12 13 14 14 13 15 15 15 17 17 17 17 16 15 14 13 17 21 19 17 17 18 19 20 21 22 24 25 25 26 27 27 26 26 26 26 26 26 25 26 26 27 28 28 28 28 28 28 28 28 28 28 28 27 26 24 24 26 28 28 28 28 28 27 27 26 25 24 23 22 21 21 19 19
12 13 12 10 10 11 12 14 14 12 12 12 12 11 13 14 14 15 16 16 18 18 18 19 18 17 16 14 15 18 20 19 17 18 19 20 22 24 25 25 26 27 28 28 28 28 28 29 29 29 29 28 29 29 30 30 30 30 30 30 30 31 31 31 30 29 28 27 27 28 29 30 31 31 30 30 29 28 27 26 25 25 24 24 23 23
12 13 11 11 13 13 12 13 14 14 13 12 11 11 12 13 14 16 17 17 17 17 18 20 20 20 20 17 15 18 22 23 20 18 19 20 22 25 25 25 26 28 28 29 30 30 31 31 31 32 32 31 32 33 33 33 33 33 33 32 33 33 33 33 32 32 31 31 31 31 31 32 32 33 34 34 32 31 30 29 28 28 27 27 26 26
9 9 9 11 13 13 12 11 12 12 12 12 11 11 13 13 14 16 16 17 16 17 20 21 22 24 21 18 18 20 22 24 23 22 21 21 23 25 26 26 27 28 29 31 31 32 32 33 34 35 35 35 34 35 35 36 36 35 35 35 36 36 35 35 35 35 34 34 35 34 34 34 34 36 37 37 36 35 33 32 31 30 30 29 28 28
8 8 9 9 11 13 12 10 10 11 11 12 12 13 13 13 14 16 16 18 19 18 21 23 24 25 22 19 20 22 22 23 26 26 24 24 26 28 27 28 29 30 31 32 33 33 33 33 35 37 38 38 37 37 38 39 39 39 38 38 39 39 39 38 38 38 38 38 38 38 37 36 36 37 38 39 38 38 37 36 35 33 33 32 30 29
8 8 8 9 11 12 12 11 11 11 12 13 14 14 14 14 14 16 17 18 22 24 24 27 29 26 21 20 22 24 26 27 28 27 26 25 27 29 30 31 32 32 32 33 33 34 34 34 36 38 40 41 40 39 40 41 42 41 41 42 42 43 42 42 42 42 42 41 41 41 40 40 39 40 40 40 40 40 40 39 38 37 35 35 33 32
7 7 9 11 12 12 12 14 14 13 13 15 15 15 15 16 15 18 21 23 29 32 31 30 28 22 19 20 23 26 29 32 33 32 31 30 28 30 33 33 33 32 31 32 33 35 35 36 37 40 43 44 42 41 42 43 44 44 45 46 46 47 46 47 46 46 46 45 45 45 44 44 43 43 42 42 42 42 42 42 41 40 39 38 37 35
7 8 11 13 13 13 14 15 15 14 13 15 16 16 17 18 19 22 26 29 32 33 29 27 25 22 20 20 22 27 30 33 37 38 37 36 35 35 36 34 33 31 31 32 34 35 36 38 39 42 45 47 45 44 44 45 45 46 48 49 50 50 50 50 51 51 50 49 48 48 48 47 47 47 46 46 45 44 44 44 44 43 42 41 40 39
8 9 12 12 12 14 16 15 15 15 15 14 15 16 19 21 23 26 28 29 31 30 26 25 25 23 21 21 23 26 30 33 37 39 40 40 41 43 40 35 33 32 32 33 35 37 39 41 42 44 47 49 48 47 46 46 47 49 51 52 53 53 53 53 54 54 54 52 52 51 51 51 50 50 50 49 48 46 46 46 46 46 46 46 45 44
9 8 11 14 13 14 16 15 15 17 16 15 16 17 19 21 23 25 27 26 27 29 29 28 27 24 22 23 24 26 30 33 35 36 38 40 43 45 41 35 34 35 35 36 37 39 42 44 45 46 48 51 52 51 49 48 49 51 54 55 56 55 55 56 57 57 56 55 55 55 54 54 54 53 52 50 49 49 48 48 49 50 51 52 52 50
10 8 11 15 14 14 15 15 15 16 17 17 17 18 19 20 20 23 26 25 24 28 31 31 29 23 20 23 26 28 30 32 33 34 36 39 41 42 39 35 36 37 37 38 39 41 43 45 48 48 49 53 57 55 52 51 52 55 56 58 58 58 58 58 59 59 59 58 59 59 58 57 57 56 53 51 50 50 50 50 51 53 56 57 57 55
10 9 11 13 14 14 14 14 14 14 16 18 18 20 22 22 23 24 26 27 27 28 31 35 33 21 18 24 27 28 30 31 31 33 35 38 38 37 36 36 37 38 38 40 42 43 45 47 50 51 52 57 60 59 55 55 56 58 59 61 61 61 61 61 61 61 61 62 62 61 61 60 60 58 54 51 50 50 52 54 55 58 60 60 59 57
9 9 11 12 13 13 13 15 16 15 16 17 18 20 21 23 25 26 28 31 33 32 31 36 35 22 18 26 27 26 30 30 32 34 36 37 37 36 36 37 38 39 40 42 44 45 47 49 51 53 55 60 62 62 59 59 60 61 63 64 63 63 63 63 63 63 64 64 65 64 63 62 62 59 53 50 50 51 54 56 58 60 61 62 60 57
11 10 11 12 11 12 13 15 18 18 17 17 18 19 20 23 24 24 27 30 34 37 35 38 40 26 19 26 28 28 32 32 34 38 38 37 36 37 37 38 39 41 42 45 47 47 49 50 53 57 60 63 65 65 64 63 64 65 67 67 67 66 67 66 66 66 67 67 67 67 66 65 64 58 52 51 51 52 54 57 60 62 61 62 61 57
14 11 12 13 12 12 14 14 17 18 18 19 20 20 21 24 25 26 28 30 32 36 36 41 44 32 23 28 30 31 36 36 37 39 38 37 36 38 39 40 42 43 44 47 48 50 52 53 57 63 65 67 68 68 67 67 68 70 71 71 70 69 69 69 69 69 69 69 70 70 69 69 65 58 53 53 52 52 54 57 61 62 60 60 61 59
13 11 13 15 14 14 15 15 17 18 19 19 19 20 22 26 32 34 33 32 33 33 34 40 43 33 27 32 33 35 39 39 38 39 38 38 38 40 43 43 45 46 47 49 51 53 55 57 62 68 71 71 72 71 71 72 73 74 73 72 71 72 72 72 72 72 72 72 73 72 72 71 65 58 55 55 54 54 55 57 59 59 59 59 59 59
13 12 13 14 15 15 16 15 16 18 19 20 20 23 25 29 34 33 30 35 37 35 36 40 39 33 29 31 35 38 40 40 38 39 40 41 42 44 46 46 47 48 49 51 54 57 59 62 68 73 75 75 76 75 75 76 77 77 75 74 75 75 75 74 74 75 74 76 76 74 74 72 64 58 57 56 55 55 54 53 53 53 55 57 59 61
14 13 12 12 13 14 13 13 15 17 19 21 24 27 29 31 34 31 31 37 38 38 39 37 37 38 34 33 38 40 39 39 39 39 41 43 45 47 47 47 48 49 51 53 56 60 63 66 71 76 78 79 79 78 78 79 79 78 77 77 78 78 78 77 77 76 77 78 77 75 76 71 62 58 58 56 55 54 52 49 48 48 52 56 59 60
15 15 15 14 14 14 13 13 17 19 19 22 26 28 29 34 37 36 36 36 35 40 41 34 36 42 39 38 42 42 38 38 39 41 43 44 45 47 48 48 49 50 52 54 58 62 66 70 74 78 79 80 80 79 79 80 80 79 79 80 80 80 80 79 78 78 79 80 77 77 76 69 61 59 58 56 55 53 50 48 47 47 51 55 57 56
16 16 18 20 19 16 15 15 18 20 21 23 26 24 25 32 39 41 40 36 36 41 40 36 39 41 39 41 44 40 39 41 42 44 46 46 47 49 51 52 53 55 56 58 61 65 68 72 77 79 80 80 80 80 80 81 80 80 81 82 82 83 82 81 81 81 82 80 78 77 75 66 59 58 57 55 54 53 51 49 47 47 49 52 53 51
16 18 24 27 23 20 19 18 20 23 26 28 27 24 24 29 36 40 40 37 39 43 41 41 44 41 40 44 44 40 42 44 44 45 47 48 50 53 56 58 59 60 61 63 64 67 70 75 78 79 80 81 81 80 81 81 81 82 84 84 84 85 85 85 85 83 82 80 78 77 72 63 59 58 57 55 54 52 51 49 48 47 48 50 50 48
16 21 29 29 25 23 21 21 23 26 29 30 28 25 26 29 33 39 41 41 44 48 46 47 50 46 43 45 45 44 45 45 45 46 48 50 54 58 60 60 62 63 64 65 66 69 73 77 79 80 81 81 80 81 81 82 83 84 85 85 86 87 88 87 86 84 82 79 77 75 70 63 61 60 57 56 55 53 51 50 50 50 50 51 50 49
16 20 24 24 25 24 22 24 26 27 30 32 30 28 29 33 36 39 40 43 48 53 54 54 54 51 47 47 47 47 47 46 46 48 51 53 57 61 61 60 62 64 65 66 69 73 77 80 81 81 81 81 81 82 83 84 85 86 86 87 88 89 89 88 86 84 81 77 76 75 70 65 63 61 58 56 55 52 50 49 50 50 51 52 52 52
20 20 20 22 26 25 24 26 27 29 33 34 32 32 32 35 38 37 36 40 46 52 56 56 54 50 49 50 51 51 50 49 48 49 54 59 61 62 62 62 64 65 67 70 73 77 81 82 83 83 82 82 82 83 84 86 87 87 88 89 90 90 90 89 86 84 79 76 78 77 71 67 65 61 57 56 54 52 51 50 50 51 52 53 54 53
25 23 21 24 26 26 26 28 29 33 36 32 29 32 34 36 39 39 37 39 46 52 54 52 49 48 50 51 52 54 53 50 46 47 54 62 65 67 67 66 68 69 72 76 78 81 83 84 84 85 84 83 83 84 86 87 88 89 89 90 91 91 91 89 86 82 78 79 83 80 73 68 64 60 57 56 54 52 51 51 51 53 55 56 57 55
27 25 25 27 30 30 30 31 34 35 32 30 33 36 39 40 41 41 37 37 46 54 51 48 45 45 46 46 48 51 50 46 41 41 51 62 67 70 71 70 72 74 77 80 82 83 84 84 84 85 84 83 84 85 87 88 89 90 91 92 93 93 91 88 85 82 81 84 86 80 72 67 63 59 58 56 54 53 53 53 54 56 58 59 59 57
28 28 28 30 33 34 34 35 36 33 28 32 39 42 43 42 42 44 39 33 40 49 47 44 43 42 44 44 45 47 47 44 39 38 49 60 63 68 73 74 76 78 80 83 84 84 84 84 83 83 83 83 84 86 88 90 90 91 92 93 94 93 91 88 86 83 84 88 86 77 70 66 62 60 59 57 56 56 55 56 57 59 61 62 61 59
28 30 31 34 37 37 38 39 37 34 34 39 42 41 42 42 42 47 42 32 34 42 43 43 43 43 44 45 46 47 49 49 44 41 51 61 62 66 73 76 78 82 83 84 84 84 85 84 83 83 83 84 87 89 91 91 92 93 93 94 95 94 92 90 87 85 87 89 82 73 69 67 64 62 61 60 59 59 59 60 61 62 62 62 62 62
31 31 32 38 43 43 45 47 46 44 43 45 45 43 44 46 45 47 43 35 33 37 40 43 45 47 49 50 51 52 56 58 53 48 57 66 65 66 72 75 79 82 84 85 86 86 87 86 85 86 86 88 90 92 93 94 94 95 95 95 96 95 93 90 87 87 90 87 79 73 71 68 65 64 64 63 63 63 64 65 65 65 64 63 63 63
35 36 36 42 47 48 50 53 54 52 49 48 48 46 46 48 46 44 43 38 33 35 40 44 46 48 51 53 55 58 63 68 63 55 60 66 65 66 71 74 79 83 86 88 89 89 90 89 89 89 90 91 93 94 96 96 96 96 96 96 97 95 93 90 88 90 91 85 77 75 73 70 68 68 67 67 67 68 69 70 69 68 67 66 66 65
42 42 43 47 49 50 54 59 57 52 51 52 50 47 48 47 45 47 48 41 36 38 42 44 46 49 53 55 57 60 64 69 69 64 65 69 70 71 74 78 82 87 89 92 92 92 92 92 92 93 93 95 96 97 98 98 97 97 97 97 97 96 93 91 91 93 90 83 77 76 75 72 71 71 70 72 72 73 73 73 73 72 70 69 69 67
48 47 47 50 51 52 61 68 62 52 50 51 49 46 47 47 46 49 48 43 42 44 45 47 50 53 56 58 59 60 62 66 69 70 70 74 76 77 79 82 84 87 90 92 93 94 95 95 95 96 97 97 98 98 99 99 98 98 98 98 97 96 93 93 94 93 88 82 79 78 77 76 75 74 74 76 77 77 77 77 77 76 74 73 71 70
47 50 49 51 53 55 63 70 65 54 47 46 44 42 44 47 49 49 46 43 46 49 50 52 54 55 58 61 61 63 65 67 70 74 76 78 81 83 84 86 87 88 89 91 94 95 97 97 98 98 99 99 100 100 100 100 99 99 98 98 96 95 95 95 95 92 86 83 82 80 79 79 78 77 79 80 81 81 81 81 80 79 77 76 74 73
44 47 47 49 53 56 61 67 64 54 45 40 40 41 42 45 48 48 47 46 47 51 54 56 56 59 63 65 65 66 68 70 74 77 80 83 85 87 88 89 89 90 90 92 94 96 98 99 100 100 101 100 101 101 101 100 100 99 99 98 96 96 96 95 94 92 88 85 84 83 83 82 81 82 83 84 84 84 84 84 83 82 80 79 77 76
44 43 44 48 51 51 54 57 53 47 41 39 40 42 43 45 48 51 54 55 55 58 62 63 62 64 66 68 67 66 67 71 75 77 82 85 87 88 89 89 89 90 91 92 94 96 97 99 100 100 101 101 101 101 101 101 100 99 99 98 98 97 96 95 95 92 90 88 87 86 86 85 85 86 86 86 86 86 86 86 86 85 84 82 80 78
44 43 44 48 50 48 47 46 42 39 38 38 40 42 43 45 49 54 59 62 64 66 69 70 68 66 65 67 67 65 66 71 74 76 81 85 86 87 88 88 88 89 90 92 93 94 95 96 98 99 100 100 101 101 101 101 100 99 98 98 98 98 97 96 96 94 92 91 90 90 89 88 88 88 87 88 89 89 88 87 87 87 86 84 83 81
44 46 46 46 47 45 42 39 38 38 40 41 43 46 48 52 57 63 67 69 70 69 69 69 68 66 65 65 66 65 66 71 75 76 79 83 85 86 87 87 87 89 91 92 93 94 94 94 95 96 97 98 99 100 100 100 100 99 99 98 98 98 98 98 97 96 93 92 91 91 90 89 89 88 87 89 90 90 88 88 88 87 87 86 85 83
45 48 47 45 45 43 39 35 35 37 41 44 45 45 48 52 58 65 70 70 68 65 63 64 64 65 64 65 66 66 67 71 76 78 79 83 85 85 86 86 88 90 92 94 94 94 93 93 92 93 94 96 97 98 99 100 100 100 99 99 99 99 99 98 97 95 93 91 91 91 91 90 89 89 90 91 91 90 89 88 88 88 88 88 88 85
47 48 47 45 43 41 39 36 32 30 35 44 49 52 56 58 59 61 64 64 63 61 61 62 64 66 67 67 68 69 69 72 77 79 81 83 85 85 85 87 89 91 93 95 95 93 92 92 91 92 94 96 97 98 100 101 101 100 100 99 100 99 99 98 97 95 93 93 93 92 92 92 91 92 92 92 91 90 90 89 89 89 89 90 89 86
49 47 46 43 40 39 41 40 35 30 30 35 42 50 57 62 62 61 61 61 61 61 62 61 63 67 69 70 72 72 72 74 77 80 81 83 84 85 86 88 90 93 95 95 94 94 93 92 93 94 95 97 98 100 101 101 101 100 100 100 100 100 99 98 97 96 94 94 94 93 92 92 93 93 93 92 92 92 92 91 90 89 89 90 88 85
50 46 43 42 39 39 40 42 42 41 38 36 39 45 50 55 57 58 59 61 61 62 64 64 63 64 66 70 73 75 75 76 78 80 81 83 85 87 88 90 93 95 97 97 96 95 95 95 95 96 98 99 101 101 102 101 100 100 101 101 101 101 100 98 97 96 95 94 94 94 93 93 93 94 94 94 93 92 91 90 89 88 88 88 87 85
47 43 43 44 42 41 41 44 48 50 48 47 50 53 55 58 61 61 62 63 64 66 69 71 70 69 68 69 72 75 76 77 79 81 82 83 86 88 90 93 96 97 98 98 98 97 97 97 98 100 102 102 102 102 101 101 101 102 102 102 101 100 99 98 97 96 94 94 94 94 94 95 95 95 95 93 92 90 89 88 88 88 88 88 87 86